When you browse on this site, cookies collect data to enhance your experience and personalize the content and advertising you see.
Visit our Privacy Policy to learn more. By continuing to use the site, you agree to this use of cookies and data.
  • In United Kingdom
  • List of Countries
  • For 7 days
  • Water Temperature
  • Weather Map
  • Weather Widgets
  • user-avatar
    Login

    Hourly Weather Nove-Misto

    Today, 23 February, Sunday

    Time Temperature Precipitation Wind Pressure Humidity
    00:00 0°C° 0 mm 4 mps 743 mmHg 80%
    01:00 0°C° 0 mm 5 mps 742 mmHg 80%
    02:00 -1°C° 0 mm 6 mps 741 mmHg 80%
    03:00 -1°C° 0 mm 6 mps 740 mmHg 79%
    04:00 -1°C° 0 mm 7 mps 740 mmHg 77%
    05:00 -1°C° 0 mm 7 mps 739 mmHg 76%
    06:00 -1°C° 0 mm 6 mps 739 mmHg 73%
    07:00 +1°C° 0 mm 6 mps 739 mmHg 71%
    08:00 +1°C° 0 mm 6 mps 738 mmHg 69%
    09:00 +2°C° 0 mm 7 mps 738 mmHg 69%
    10:00 +3°C° 0 mm 7 mps 738 mmHg 68%
    11:00 +4°C° 0 mm 7 mps 737 mmHg 67%
    12:00 +4°C° 0 mm 7 mps 737 mmHg 67%
    13:00 +5°C° 0 mm 7 mps 737 mmHg 67%
    14:00 +6°C° 0 mm 7 mps 736 mmHg 66%
    15:00 +5°C° 0.1 mm 6 mps 736 mmHg 72%
    16:00 +5°C° 0.1 mm 5 mps 736 mmHg 78%
    17:00 +4°C° 0.1 mm 4 mps 735 mmHg 83%
    18:00 +4°C° 0.1 mm 3 mps 735 mmHg 85%
    19:00 +5°C° 0.1 mm 2 mps 735 mmHg 88%
    20:00 +6°C° 0.1 mm 1 mps 734 mmHg 90%
    21:00 +5°C° 0.2 mm 2 mps 733 mmHg 88%
    22:00 +4°C° 0.2 mm 3 mps 732 mmHg 86%
    23:00 +4°C° 0.2 mm 4 mps 731 mmHg 84%

    Tomorrow, 24 February, Monday

    Time Temperature Precipitation Wind Pressure Humidity
    00:00 +3°C° 0.4 mm 5 mps 729 mmHg 84%
    01:00 +4°C° 0.4 mm 7 mps 728 mmHg 84%
    02:00 +4°C° 0.4 mm 8 mps 726 mmHg 84%
    03:00 +3°C° 0.6 mm 9 mps 724 mmHg 83%
    04:00 +5°C° 0.6 mm 9 mps 723 mmHg 82%
    05:00 +5°C° 0.6 mm 10 mps 721 mmHg 80%
    06:00 +5°C° 0.2 mm 10 mps 720 mmHg 80%
    07:00 +3°C° 0.2 mm 11 mps 720 mmHg 80%
    08:00 +3°C° 0.2 mm 11 mps 719 mmHg 80%
    09:00 +2°C° 0.5 mm 12 mps 721 mmHg 80%
    10:00 0°C° 0.5 mm 13 mps 722 mmHg 80%
    11:00 -1°C° 0.5 mm 14 mps 723 mmHg 80%
    12:00 0°C° 0 mm 14 mps 725 mmHg 72%
    13:00 +1°C° 0 mm 13 mps 726 mmHg 63%
    14:00 +3°C° 0 mm 12 mps 728 mmHg 55%
    15:00 +2°C° 0.1 mm 12 mps 729 mmHg 59%
    16:00 0°C° 0.1 mm 12 mps 730 mmHg 63%
    17:00 +1°C° 0.1 mm 11 mps 731 mmHg 68%
    18:00 -1°C° 0 mm 11 mps 732 mmHg 70%
    19:00 0°C° 0 mm 10 mps 733 mmHg 72%
    20:00 0°C° 0 mm 10 mps 734 mmHg 74%
    21:00 0°C° 0 mm 8 mps 735 mmHg 75%
    22:00 -1°C° 0 mm 7 mps 735 mmHg 75%
    23:00 -1°C° 0 mm 6 mps 736 mmHg 75%

    Day after tomorrow, 25 February, Tuesday

    Time Temperature Precipitation Wind Pressure Humidity
    00:00 -2°C° 0 mm 6 mps 736 mmHg 76%
    01:00 -1°C° 0 mm 5 mps 737 mmHg 77%
    02:00 -2°C° 0 mm 4 mps 737 mmHg 78%
    03:00 -2°C° 0 mm 4 mps 737 mmHg 80%
    04:00 -1°C° 0 mm 3 mps 737 mmHg 83%
    05:00 -2°C° 0 mm 3 mps 737 mmHg 86%
    06:00 -1°C° 0 mm 3 mps 737 mmHg 84%
    07:00 -1°C° 0 mm 3 mps 737 mmHg 83%
    08:00 -1°C° 0 mm 4 mps 737 mmHg 82%
    09:00 0°C° 0 mm 4 mps 736 mmHg 76%
    10:00 +1°C° 0 mm 5 mps 736 mmHg 70%
    11:00 +2°C° 0 mm 6 mps 735 mmHg 64%
    12:00 +1°C° 0.1 mm 6 mps 735 mmHg 71%
    13:00 0°C° 0.1 mm 7 mps 734 mmHg 79%
    14:00 0°C° 0.1 mm 7 mps 734 mmHg 86%
    15:00 +2°C° 0 mm 6 mps 733 mmHg 78%
    16:00 +4°C° 0 mm 4 mps 733 mmHg 69%
    17:00 +5°C° 0 mm 3 mps 732 mmHg 61%
    18:00 +4°C° 0 mm 3 mps 732 mmHg 62%
    19:00 +4°C° 0 mm 3 mps 731 mmHg 63%
    20:00 +4°C° 0 mm 3 mps 731 mmHg 64%
    21:00 +4°C° 0 mm 4 mps 731 mmHg 65%
    22:00 +3°C° 0 mm 4 mps 730 mmHg 66%
    23:00 +3°C° 0 mm 4 mps 730 mmHg 66%

    26 February, Wednesday

    Time Temperature Precipitation Wind Pressure Humidity
    00:00 +3°C° 0 mm 4 mps 729 mmHg 69%
    01:00 +2°C° 0 mm 3 mps 729 mmHg 71%
    02:00 +2°C° 0 mm 3 mps 729 mmHg 73%
    03:00 +2°C° 0 mm 3 mps 728 mmHg 74%
    04:00 +1°C° 0 mm 3 mps 728 mmHg 74%
    05:00 +1°C° 0 mm 3 mps 727 mmHg 75%
    06:00 +1°C° 0 mm 3 mps 727 mmHg 75%
    07:00 +1°C° 0 mm 3 mps 727 mmHg 76%
    08:00 +3°C° 0 mm 2 mps 727 mmHg 76%
    09:00 +4°C° 0 mm 2 mps 727 mmHg 72%
    10:00 +6°C° 0 mm 2 mps 727 mmHg 67%
    11:00 +8°C° 0 mm 2 mps 727 mmHg 63%
    12:00 +8°C° 0 mm 2 mps 726 mmHg 61%
    13:00 +9°C° 0 mm 2 mps 726 mmHg 59%
    14:00 +10°C° 0 mm 2 mps 726 mmHg 57%
    15:00 +9°C° 0 mm 2 mps 726 mmHg 63%
    16:00 +9°C° 0 mm 2 mps 726 mmHg 69%
    17:00 +8°C° 0 mm 2 mps 726 mmHg 75%
    18:00 +7°C° 0.1 mm 2 mps 726 mmHg 79%
    19:00 +7°C° 0.1 mm 3 mps 726 mmHg 84%
    20:00 +5°C° 0.1 mm 3 mps 726 mmHg 88%
    21:00 +5°C° 0.1 mm 3 mps 726 mmHg 89%
    22:00 +6°C° 0.1 mm 2 mps 726 mmHg 89%
    23:00 +6°C° 0.1 mm 2 mps 726 mmHg 89%

    27 February, Thursday

    Time Temperature Precipitation Wind Pressure Humidity
    00:00 +6°C° 0 mm 2 mps 726 mmHg 89%
    01:00 +7°C° 0 mm 1 mps 725 mmHg 88%
    02:00 +7°C° 0 mm 1 mps 725 mmHg 87%
    03:00 +6°C° 0 mm 1 mps 725 mmHg 87%
    04:00 +6°C° 0 mm 1 mps 724 mmHg 87%
    05:00 +6°C° 0 mm 1 mps 724 mmHg 88%
    06:00 +6°C° 0 mm 1 mps 724 mmHg 87%
    07:00 +6°C° 0 mm 1 mps 724 mmHg 87%
    08:00 +5°C° 0 mm 0 mps 724 mmHg 87%
    09:00 +7°C° 0 mm 1 mps 724 mmHg 84%
    10:00 +8°C° 0 mm 1 mps 724 mmHg 81%
    11:00 +9°C° 0 mm 1 mps 724 mmHg 77%
    12:00 +9°C° 0 mm 1 mps 724 mmHg 76%
    13:00 +10°C° 0 mm 1 mps 724 mmHg 74%
    14:00 +9°C° 0 mm 2 mps 724 mmHg 72%
    15:00 +6°C° 1.1 mm 4 mps 724 mmHg 79%
    16:00 +3°C° 1.1 mm 6 mps 724 mmHg 86%
    17:00 0°C° 1.1 mm 8 mps 724 mmHg 92%
    18:00 0°C° 1.1 mm 8 mps 725 mmHg 92%
    19:00 0°C° 1.1 mm 7 mps 726 mmHg 93%
    20:00 -1°C° 1.1 mm 7 mps 726 mmHg 93%
    21:00 -1°C° 0 mm 7 mps 727 mmHg 90%
    22:00 -1°C° 0 mm 6 mps 727 mmHg 87%
    23:00 0°C° 0 mm 5 mps 727 mmHg 85%

    28 February, Friday

    Time Temperature Precipitation Wind Pressure Humidity
    00:00 0°C° 0 mm 5 mps 727 mmHg 84%
    01:00 -1°C° 0 mm 6 mps 728 mmHg 83%
    02:00 -2°C° 0 mm 6 mps 728 mmHg 82%
    03:00 -2°C° 0 mm 6 mps 728 mmHg 82%
    04:00 -2°C° 0 mm 6 mps 728 mmHg 82%
    05:00 -2°C° 0 mm 6 mps 728 mmHg 83%
    06:00 -3°C° 0 mm 6 mps 729 mmHg 83%
    07:00 -3°C° 0 mm 6 mps 729 mmHg 83%
    08:00 -3°C° 0 mm 6 mps 729 mmHg 82%
    09:00 -1°C° 0 mm 5 mps 729 mmHg 77%
    10:00 0°C° 0 mm 5 mps 730 mmHg 72%
    11:00 +1°C° 0 mm 4 mps 730 mmHg 67%
    12:00 +3°C° 0 mm 4 mps 730 mmHg 63%
    13:00 +3°C° 0 mm 4 mps 730 mmHg 59%
    14:00 +4°C° 0 mm 4 mps 730 mmHg 54%
    15:00 +4°C° 0 mm 4 mps 730 mmHg 55%
    16:00 +4°C° 0 mm 4 mps 729 mmHg 56%
    17:00 +4°C° 0 mm 4 mps 729 mmHg 56%
    18:00 +3°C° 0 mm 4 mps 729 mmHg 60%
    19:00 +3°C° 0 mm 4 mps 730 mmHg 64%
    20:00 +3°C° 0 mm 4 mps 730 mmHg 68%
    21:00 +1°C° 0 mm 4 mps 730 mmHg 70%
    22:00 +1°C° 0 mm 5 mps 730 mmHg 73%
    23:00 +1°C° 0 mm 6 mps 730 mmHg 75%
    Show more